Regional Weather Roundup
Issued by NWS Northern Indiana

Home | Current Version | Previous Version | Text Only | Print | Product List | Glossary On
Versions: 1 2 3 4 5 6 7 8 9 10 11 12 13 14 15 16 17 18 19 20 21 22 23 24 25 26 27 28 29 30 31 32 33 34 35 36 37 38 39 40 41 42 43 44 45 46 47 48 49 50
000
ASUS43 KIWX 290800
RWRIWX

KIWX WEATHER ROUNDUP
NATIONAL WEATHER SERVICE NORTHERN INDIANA
400 AM EDT WED MAR 29 2017

NOTE: "FAIR" INDICATES FEW OR NO CLOUDS BELOW 12,000 FEET WITH NO
SIGNIFICANT WEATHER AND/OR OBSTRUCTIONS TO VISIBILITY.

* THESE STATIONS ARE NOT UNDER NWS QUALITY CONTROL. THEY ALSO MAY NOT
  REPORT WEATHER SUCH AS PRECIPITATION OR FOG.

INZ001>027-290900-
NORTHERN INDIANA

CITY           SKY/WX    TMP DP  RH WIND       PRES   REMARKS
SOUTH BEND     CLEAR     32  32 100 NE5       30.22F FOG     WCI  27
GOSHEN         CLEAR     34  31  88 NE3       30.21F FOG
MONTICELLO*    CLOUDY    46  41  83 E9        30.16F
ANGOLA*        MOCLDY    30  30 100 CALM      30.20F VSB 3/4
FORT WAYNE     PTCLDY    39  35  86 NE7       30.20S
PERU/GRISSOM   CLOUDY    46  43  91 E12       30.16F

$$
INZ028>050-290900-
CENTRAL INDIANA

CITY           SKY/WX    TMP DP  RH WIND       PRES   REMARKS
LAFAYETTE      CLOUDY    46  44  93 NE9       30.15F
KOKOMO*        CLOUDY    45  42  89 E14       30.18S
MUNCIE*        CLOUDY    47  42  83 E12       30.16F
INDIANAPOLIS   CLOUDY    49  46  90 NE12      30.13S

$$
MIZ043>046-050>051-056>058-064>065-071>073-077>080-290900-
SOUTHWEST LOWER MICHIGAN

CITY           SKY/WX    TMP DP  RH WIND       PRES   REMARKS
BATTLE CREEK   CLEAR     34  33  96 NE5       30.23S WCI  30
BENTON HARBOR  CLEAR     30  27  88 CALM      30.23F
COLDWATER*     FOG       33  33 100 CALM      30.22S VSB 1/2
HILLSDALE*     CLEAR     32  30  93 NE5       30.21R WCI  27
HOLLAND        CLEAR     31  28  89 CALM      30.24F
GRAND RAPIDS   CLEAR     34  34 100 E5        30.24R WCI  30
KALAMAZOO      FOG       32  30  92 CALM      30.23S VSB 3/4
STURGIS*       CLEAR     33  33 100 NE6       30.21F FOG     WCI  27
THREE RIVERS*  FAIR      31  31  99 CALM      30.23F FOG

$$
OHZ001>008-015>018-024>025-290900-
NORTHWEST OHIO

CITY           SKY/WX    TMP DP  RH WIND       PRES   REMARKS
DEFIANCE       CLEAR     35  33  92 E5        30.22S WCI  31
FINDLAY        CLOUDY    38  31  76 NE7       30.20S
TOLEDO EXPRESS CLEAR     33  32  96 CALM      30.22S
TOLEDO METCALF CLOUDY    39  34  82 NE6       30.22F
LIMA           MOCLDY    38  35  89 NE6       30.19S

$$
AND FOR LAKE MICHIGAN COASTAL AND OPEN LAKE BUOY OBSERVATIONS

STATION/POSITION TEMP    WIND        PRES    VSBY  WAVE
                 AIR SEA DIR/SP/G                  HT/PER
                 (F)     (DEG/KT/KT) (MB)    (MI)  (FT/S)
CALUMET HARBOR    34      50/  6/  9 1022.8F
MICHIGAN CITY     35      70/  5/  6   N/A
BURNS HARBOR      36      80/ 11/ 12 1023.7F
SAINT JOSEPH      34      60/  2/  4 1024.0

$$
&&




USA.gov is the U.S. government's official web portal to all federal, state and local government web resources and services.